Find Starlink 34338

NORAD ID: 64151 Int'l Des: 2025-112 Owner: SPXS Country: US Constellation: starlink operational
LEOCIRCULARRETROGRADESSO

現在のビュー

3D地球を読み込み中...

About Starlink 34338

Starlink 34338 (NORAD 64151) is a starlink constellation satellite (v2 mini) launched May 27, 2025 by SPXS of US. It operates in LEO, CIRCULAR, RETROGRADE, SSO orbit with a mass of 575.00 kg.

次回通過

Passes for default location (London). Set your location on the main map for personalized predictions.

高度履歴

Loading altitude history...

軌道要素

1 64151U 25112F 26225.16668980 -.00007964 00000-0 -24464-3 0 9990
2 64151 97.2837 272.7235 0001781 91.1239 111.9829 15.33442030 5770
Epoch: Aug 13, 2026 • Age: 9 hours

現在のステータス

高度 477.9 km
遠地点 / 近地点 N/A
速度 7.63 km/s
衛星直下点 82.06°N, 52.01°E
打ち上げ日 May 27, 2025
運用期間 1.2 years
タイプ internet

技術仕様

分類 Payload
質量 575.00 kg
乾燥質量 530.00 kg
総質量 575.00 kg
長さ 0.30 m
直径 4.10 m
スパン 29.00 m
形状 Box + pan
製造者 SPXS
バスタイプ Starlink V2MO
フェーズステータス In Orbit
所有者/国 SPXS/US

Most Searched